Location: ??? ?????
(30.6482°N, 60.5850°E)
Time: 18:28:49
(UTC+00:00)

ARGOS Delta rocket - Pass Details

Date: 09 April 2020
Orbit: 634 x 839 km, 96.4° (Epoch: 06 June)

Event Time Altitude Azimuth Distance (km) Brightness Sun altitude
Rises 15:20:34 0° 170° (S) 3,234 7.0 -13.1°
Reaches altitude 10° 15:22:49 10° 171° (S) 2,337 6.2 -13.5°
Maximum altitude 15:28:03 85° 260° (W) 820 4.2 -14.6°
Drops below altitude 10° 15:33:31 10° 349° (NNW) 2,441 7.0 -15.7°
Sets 15:35:55 0° 350° (N) 3,388 7.8 -16.2°
